Orbital Elements at Epoch 2459000.5 (2020-May-31.0) TDB
Reference: JPL 13 (heliocentric ecliptic J2000)
Element | Value | Uncertainty (1-sigma) | Units |
e | .2060887744926487 | 1.6385e-07 | |
a | 2.568358243730595 | 2.953e-08 | au |
q | 2.039048440822065 | 4.4109e-07 | au |
i | 4.974465788766676 | 7.6518e-06 | deg |
node | 41.2145806706877 | 8.8198e-05 | deg |
peri | 324.6251961743736 | 9.3968e-05 | deg |
M | 44.52468335057346 | 2.8724e-05 | deg |
tp | 2458814.556857465888 (2019-Nov-27.05685747) | 0.00011771 | TDB |
period | 1503.425207658848 4.12 | 2.5929e-05 7.099e-08 | d yr |
n | .2394532153419167 | 4.1297e-09 | deg/d |
Q | 3.097668046639125 | 3.5616e-08 | au |
|
| | Orbit Determination Parameters
Additional Information
|